Powrót do katalogu

STARLINK-11118

AktywnyŁącznośćVLEO
NORAD 59754·PAYLOAD·🇺🇸 United States

Wystrzelony May 14, 2024 z Vandenberg Space Force Base

Loading…

Następne Przeloty (najbliższe 24 godziny)

TLE

ŚwieżeSource: CelesTrak SupGP

Epoka: Sep 15, 2026, 03:12 UTC

1 59754C 24091B   26258.13381944  .00005962  00000+0  49124-4 0  2585
2 59754  53.1570 352.7012 0001033  87.7597 256.8972 15.69699164    19

Śledź STARLINK-11118 w czasie rzeczywistym z AllMySat

Download on the App Store